Location: Cardiff
(53.7833°N, 113.6000°W)
Time: 22:27:15
(UTC+00:00)

Oscar 19 - Pass Details

Date: 04 December 2023
Orbit: 771 x 789 km, 98.9° (Epoch: 04 March)

Event Time Altitude Azimuth Distance (km) Brightness Sun altitude
Rises 14:10:51 0° 10° (N) 3,271 13.7 -11.3°
Reaches altitude 10° 14:13:36 10° 356° (N) 2,342 12.8 -10.9°
Maximum altitude 14:17:30 22° 306° (NW) 1,643 11.7 -10.4°
Drops below altitude 10° 14:21:25 10° 257° (WSW) 2,341 12.6 -9.9°
Sets 14:24:10 0° 242° (WSW) 3,268 13.5 -9.5°
